| time (UTC) | temp C | wind direction | speed KPH | gust KPH | rain 1hr cm | rain 24hr cm | rain mn cm | humidity % | barometer mb |
| 20260503060114 | 0 | 0 | 0.0 | 1.6 | 0.00 | 0.00 | 0.00 | 85 | 1015.9 |
| 20260503054620 | 0 | 0 | 0.0 | 1.6 | 0.00 | 0.00 | 0.00 | 85 | 1015.9 |
| 20260503053056 | 0 | 0 | 0.0 | 1.6 | 0.00 | 0.00 | 0.00 | 84 | 1015.9 |
| 20260503051604 | 1 | 0 | 0.0 | 0.0 | 0.00 | 0.00 | 0.00 | 83 | 1016.0 |
| 20260503050057 | 1 | 0 | 0.0 | 1.6 | 0.00 | 0.00 | 0.00 | 82 | 1016.2 |
| 20260503044556 | 1 | 0 | 0.0 | 1.6 | 0.00 | 0.00 | 0.00 | 82 | 1016.2 |
| 20260503043102 | 2 | 0 | 0.0 | 3.2 | 0.00 | 0.00 | 0.00 | 82 | 1016.2 |
| 20260503041556 | 1 | 0 | 0.0 | 4.8 | 0.00 | 0.00 | 0.00 | 84 | 1016.2 |
| 20260503040100 | 2 | 0 | 0.0 | 1.6 | 0.00 | 0.00 | 0.00 | 83 | 1016.2 |
| 20260503034554 | 2 | 0 | 0.0 | 0.0 | 0.00 | 0.00 | 0.00 | 83 | 1016.2 |
| 20260503033055 | 2 | 0 | 0.0 | 0.0 | 0.00 | 0.00 | 0.00 | 83 | 1016.3 |
| 20260503031555 | 2 | 0 | 0.0 | 0.0 | 0.00 | 0.00 | 0.00 | 83 | 1016.3 |
| 20260503024557 | 3 | 0 | 0.0 | 3.2 | 0.00 | 0.00 | 0.00 | 82 | 1016.4 |
| 20260503023103 | 3 | 0 | 0.0 | 4.8 | 0.00 | 0.00 | 0.00 | 82 | 1016.5 |
| 20260503021601 | 3 | 290 | 1.6 | 3.2 | 0.00 | 0.00 | 0.00 | 81 | 1016.6 |
| 20260503020101 | 3 | 308 | 3.2 | 6.4 | 0.00 | 0.00 | 0.00 | 80 | 1016.4 |
| 20260503014600 | 3 | 313 | 1.6 | 6.4 | 0.00 | 0.00 | 0.00 | 78 | 1016.3 |
| 20260503013056 | 3 | 293 | 4.8 | 11.3 | 0.00 | 0.00 | 0.00 | 76 | 1016.4 |
| 20260503011559 | 4 | 349 | 4.8 | 9.7 | 0.00 | 0.00 | 0.00 | 76 | 1016.1 |
| 20260503004608 | 4 | 0 | 0.0 | 8.0 | 0.00 | 0.05 | 0.00 | 78 | 1015.8 |
| 20260503003110 | 5 | 307 | 3.2 | 12.9 | 0.00 | 0.05 | 0.00 | 76 | 1015.6 |
| 20260503001626 | 5 | 330 | 3.2 | 16.1 | 0.00 | 0.05 | 0.00 | 77 | 1015.5 |
| 20260503000056 | 5 | 319 | 4.8 | 11.3 | 0.00 | 0.05 | 0.00 | 76 | 1015.5 |
| 20260502234558 | 5 | 349 | 6.4 | 14.5 | 0.00 | 0.05 | 0.00 | 75 | 1015.2 |
| 20260502233055 | 5 | 349 | 8.0 | 14.5 | 0.00 | 0.05 | 0.00 | 75 | 1015.3 |
| 20260502231600 | 5 | 330 | 6.4 | 14.5 | 0.00 | 0.05 | 0.00 | 77 | 1015.2 |
| 20260502230055 | 5 | 313 | 4.8 | 16.1 | 0.00 | 0.05 | 0.00 | 76 | 1015.2 |
| 20260502224555 | 5 | 328 | 9.7 | 17.7 | 0.00 | 0.05 | 0.00 | 73 | 1015.2 |
| 20260502223100 | 6 | 338 | 8.0 | 22.5 | 0.00 | 0.05 | 0.00 | 75 | 1015.0 |
| 20260502221555 | 6 | 1 | 8.0 | 17.7 | 0.00 | 0.05 | 0.00 | 74 | 1014.9 |
| 20260502220057 | 6 | 334 | 11.3 | 17.7 | 0.00 | 0.05 | 0.00 | 73 | 1015.0 |
| 20260502214555 | 6 | 316 | 4.8 | 14.5 | 0.00 | 0.10 | 0.00 | 79 | 1014.9 |
| 20260502213106 | 5 | 268 | 4.8 | 14.5 | 0.00 | 0.10 | 0.00 | 83 | 1015.0 |
| 20260502211557 | 5 | 276 | 11.3 | 16.1 | 0.00 | 0.10 | 0.00 | 80 | 1014.8 |
| 20260502210057 | 6 | 283 | 9.7 | 19.3 | 0.00 | 0.10 | 0.00 | 76 | 1014.7 |
| 20260502204602 | 6 | 302 | 11.3 | 17.7 | 0.00 | 0.10 | 0.00 | 73 | 1014.5 |
| 20260502203058 | 6 | 352 | 9.7 | 17.7 | 0.00 | 0.10 | 0.00 | 72 | 1014.6 |
| 20260502201556 | 7 | 297 | 8.0 | 24.1 | 0.00 | 0.10 | 0.00 | 72 | 1014.6 |
| 20260502200119 | 7 | 288 | 11.3 | 20.9 | 0.00 | 0.10 | 0.00 | 72 | 1014.6 |
| 20260502194608 | 7 | 328 | 14.5 | 22.5 | 0.00 | 0.10 | 0.00 | 71 | 1014.6 |
| 20260502193100 | 8 | 343 | 9.7 | 22.5 | 0.00 | 0.10 | 0.00 | 70 | 1014.8 |
| 20260502191605 | 7 | 304 | 11.3 | 19.3 | 0.00 | 0.10 | 0.00 | 73 | 1015.0 |
| 20260502190057 | 6 | 304 | 9.7 | 20.9 | 0.00 | 0.10 | 0.00 | 78 | 1015.3 |
| 20260502184559 | 6 | 359 | 8.0 | 17.7 | 0.00 | 0.10 | 0.00 | 79 | 1015.2 |
| 20260502183102 | 6 | 330 | 12.9 | 25.7 | 0.00 | 0.10 | 0.00 | 77 | 1015.4 |
| 20260502181557 | 7 | 296 | 9.7 | 17.7 | 0.00 | 0.10 | 0.00 | 80 | 1015.3 |
| 20260502163101 | 6 | 252 | 11.3 | 17.7 | 0.00 | 0.10 | 0.00 | 76 | 1015.1 |
| 20260502161606 | 6 | 233 | 12.9 | 22.5 | 0.00 | 0.10 | 0.00 | 76 | 1015.1 |
| 20260502160106 | 6 | 240 | 11.3 | 17.7 | 0.00 | 0.10 | 0.00 | 81 | 1015.3 |
| 20260502151610 | 6 | 221 | 11.3 | 20.9 | 0.00 | 0.10 | 0.00 | 81 | 1015.2 |
| 20260502150130 | 7 | 239 | 9.7 | 20.9 | 0.00 | 0.10 | 0.00 | 77 | 1015.2 |
| 20260502130110 | 4 | 245 | 4.8 | 9.7 | 0.00 | 0.10 | 0.00 | 94 | 1015.5 |
| 20260502123102 | 4 | 219 | 4.8 | 8.0 | 0.00 | 0.10 | 0.00 | 96 | 1015.7 |
| 20260502121607 | 3 | 230 | 4.8 | 9.7 | 0.00 | 0.10 | 0.00 | 95 | 1015.8 |
| 20260502120114 | 2 | 186 | 3.2 | 6.4 | 0.00 | 0.10 | 0.00 | 96 | 1015.8 |
| 20260502114612 | 2 | 215 | 3.2 | 6.4 | 0.00 | 0.10 | 0.00 | 96 | 1016.0 |
| 20260502113116 | 2 | 216 | 3.2 | 4.8 | 0.00 | 0.10 | 0.00 | 96 | 1016.0 |
| 20260502111605 | 1 | 0 | 0.0 | 0.0 | 0.00 | 0.10 | 0.00 | 95 | 1016.2 |
| 20260502110107 | 1 | 0 | 0.0 | 0.0 | 0.00 | 0.10 | 0.00 | 96 | 1015.9 |
| 20260502104607 | 1 | 0 | 0.0 | 1.6 | 0.00 | 0.10 | 0.00 | 95 | 1015.9 |
| 20260502103116 | 1 | 0 | 1.6 | 4.8 | 0.00 | 0.10 | 0.00 | 95 | 1015.9 |
| 20260502101611 | 1 | 266 | 1.6 | 4.8 | 0.00 | 0.10 | 0.00 | 95 | 1015.9 |
| 20260502090111 | 1 | 235 | 3.2 | 6.4 | 0.00 | 0.10 | 0.00 | 95 | 1015.9 |
| 20260502080105 | 1 | 201 | 1.6 | 3.2 | 0.00 | 0.10 | 0.00 | 95 | 1015.6 |
| 20260502070105 | 1 | 217 | 3.2 | 6.4 | 0.00 | 0.10 | 0.00 | 94 | 1015.7 |
| 20260502064555 | 1 | 212 | 3.2 | 6.4 | 0.00 | 0.10 | 0.00 | 94 | 1015.7 |